Weather History for Grand Marais, MN

Change the Weather History Date:

Thursday, February 28, 2013

  Actual Average (KCKC) Record (KCKC)
Temperature  
Mean Temperature 26 °F -  
Max Temperature 32 °F 21 °F 44 °F (2004)
Min Temperature 18 °F 6 °F -23 °F (2014)
Degree Days  
Heating Degree Days 40    
Moisture  
Dew Point 11 °F    
Average Humidity 54    
Maximum Humidity 69    
Minimum Humidity 41    
Precipitation  
Precipitation 0.00 in - - ()
Sea Level Pressure  
Sea Level Pressure 30.26 in    
Wind  
Wind Speed 9 mph (NE)    
Max Wind Speed 14 mph    
Max Gust Speed 24 mph    
Averages and records for this station are not official NWS values.
T = Trace of Precipitation, MM = Missing Value Source: NWS Daily Summary

Daily Weather History Graph

Daily Weather History Graph

Search for Another Location

Airport:

Trip Planner

Search our weather history database for the weather conditions in past years. The results will help you decide how hot, cold, wet, or windy it might be!

Date:

Astronomy

Feb. 28, 2013 Rise Set
Actual Time 6:43 AM CST 5:45 PM CST
Civil Twilight 6:12 AM CST 6:16 PM CST
Nautical Twilight 5:36 AM CST 6:51 PM CST
Astronomical Twilight 5:00 AM CST 7:27 PM CST
Moon 9:31 PM CST (2/28) 7:36 AM CST (2/28)
Length of Visible Light 12h 03m
Length of Day
11h 01m
Waning Gibbous, 90% of the Moon is Illuminated
Feb 28
Waning Gibbous
Mar 4
Last Quarter
Mar 11
New
Mar 19
First Quarter
Mar 27
Full

Hourly Weather History & Observations

Time (CST) Temp. Windchill Dew Point Humidity Pressure Visibility Wind Dir Wind Speed Gust Speed Precip Events Conditions
12:56 AM 28.0 °F 18.6 °F 18.0 °F 66% 30.13 in - NE 10.4 mph 21.9 mph N/A   Unknown
1:56 AM 28.0 °F 17.0 °F 18.0 °F 66% 30.12 in - North 13.8 mph 20.7 mph N/A   Unknown
2:56 AM 27.0 °F 21.6 °F 18.0 °F 69% 30.14 in - Variable 4.6 mph - N/A   Unknown
3:56 AM 26.1 °F 16.8 °F 17.1 °F 69% 30.17 in - NNE 9.2 mph 18.4 mph N/A   Unknown
4:56 AM 26.1 °F 15.0 °F 16.0 °F 66% 30.18 in - NE 12.7 mph 21.9 mph N/A   Unknown
5:56 AM 25.0 °F 19.3 °F 15.1 °F 66% 30.21 in - NNE 4.6 mph 18.4 mph N/A   Unknown
6:56 AM 25.0 °F 18.1 °F 15.1 °F 66% 30.23 in - Variable 5.8 mph - N/A   Unknown
7:56 AM 25.0 °F 15.5 °F 14.0 °F 63% 30.24 in - North 9.2 mph 20.7 mph N/A   Unknown
8:56 AM 27.0 °F 16.1 °F 12.9 °F 56% 30.25 in - North 12.7 mph 19.6 mph N/A   Unknown
9:56 AM 28.0 °F 18.6 °F 12.0 °F 51% 30.25 in - North 10.4 mph 20.7 mph N/A   Unknown
10:56 AM 30.0 °F 25.2 °F 12.9 °F 49% 30.26 in - Variable 4.6 mph - N/A   Unknown
11:56 AM 30.0 °F 19.5 °F 12.9 °F 49% 30.27 in - East 13.8 mph 19.6 mph N/A   Unknown
12:09 PM 30.2 °F 20.8 °F 12.2 °F 47% 30.23 in - East 11.5 mph - N/A   Unknown
12:56 PM 30.0 °F 21.7 °F 15.1 °F 54% 30.27 in - East 9.2 mph 17.3 mph N/A   Unknown
1:56 PM 30.0 °F 21.1 °F 17.1 °F 59% 30.27 in - ESE 10.4 mph - N/A   Unknown
2:56 PM 30.0 °F 21.7 °F 19.0 °F 64% 30.28 in - East 9.2 mph - N/A   Unknown
3:56 PM 32.0 °F 24.2 °F 10.9 °F 42% 30.29 in - NNE 9.2 mph - N/A   Unknown
4:56 PM 30.0 °F 21.7 °F 9.0 °F 41% 30.30 in - NNE 9.2 mph - N/A   Unknown
5:56 PM 28.0 °F 20.0 °F 7.0 °F 41% 30.33 in - NNE 8.1 mph - N/A   Unknown
6:56 PM 26.1 °F 17.6 °F 5.0 °F 41% 30.34 in - NNE 8.1 mph 16.1 mph N/A   Unknown
7:56 PM 24.1 °F 15.2 °F 3.9 °F 42% 30.35 in - NNE 8.1 mph 20.7 mph N/A   Unknown
8:56 PM 21.9 °F 13.4 °F 1.9 °F 42% 30.36 in - NNE 6.9 mph 24.2 mph N/A   Unknown
9:56 PM 21.0 °F 13.4 °F 1.0 °F 42% 30.37 in - NNE 5.8 mph 19.6 mph N/A   Unknown
10:56 PM 19.9 °F 9.3 °F 1.0 °F 44% 30.39 in - NNE 9.2 mph - N/A   Unknown
11:56 PM 18.0 °F 11.1 °F -0.0 °F 45% 30.39 in - Variable 4.6 mph - N/A   Unknown